DW6665 Weather Reports


time (UTC)temp
C
wind
direction
speed
KPH
gust
KPH
rain 1hr
cm
rain 24hr
cm
rain mn
cm
humidity
%
barometer
mb
20260507093337 10 230 0.0 4.8 0.00 0.00 0.00 89 1021.1
20260507090332 10 232 4.8 8.0 0.00 0.00 0.00 90 1021.0
20260507083356 10 241 4.8 9.7 0.00 0.00 0.00 90 1020.9
20260507080329 10 267 4.8 11.3 0.00 0.00 0.00 90 1020.9
20260507073334 10 271 6.4 14.5 0.00 0.00 0.00 91 1020.9
20260507070347 10 224 4.8 12.9 0.00 0.00 0.00 92 1020.7
20260507063334 10 252 4.8 8.0 0.00 0.00 0.00 93 1020.7
20260507060340 11 246 1.6 4.8 0.00 0.00 0.00 92 1020.9
20260507053348 11 276 1.6 8.0 0.00 0.00 0.00 90 1020.9
20260507050333 11 237 4.8 11.3 0.00 0.00 0.00 88 1020.9
20260507043334 11 204 4.8 12.9 0.00 0.00 0.00 89 1020.8
20260507040329 12 241 3.2 12.9 0.00 0.00 0.00 86 1020.7
20260507033334 12 211 6.4 11.3 0.00 0.00 0.00 84 1020.5
20260507030344 12 230 8.0 14.5 0.00 0.00 0.00 82 1020.4
20260507023327 12 175 4.8 12.9 0.00 0.00 0.00 80 1020.2
20260507020341 13 199 8.0 16.1 0.00 0.00 0.00 80 1020.0
20260507013325 13 249 1.6 11.3 0.00 0.00 0.00 80 1020.1
20260507010340 13 277 3.2 12.9 0.00 0.00 0.00 80 1020.2
20260507003342 13 213 6.4 14.5 0.00 0.00 0.00 80 1020.3
20260507000325 13 230 3.2 19.3 0.00 0.00 0.00 80 1020.2
20260506233335 13 257 4.8 14.5 0.00 0.00 0.00 79 1020.2
20260506230338 13 213 6.4 14.5 0.00 0.00 0.00 78 1020.3
20260506223355 13 236 6.4 16.1 0.00 0.00 0.00 79 1020.4
20260506220336 13 254 8.0 16.1 0.00 0.00 0.00 75 1020.5
20260506213326 13 244 9.7 19.3 0.00 0.00 0.00 77 1020.5
20260506210326 13 290 9.7 20.9 0.00 0.00 0.00 77 1020.6
20260506203353 13 237 9.7 24.1 0.00 0.00 0.00 78 1020.5
20260506200335 12 277 8.0 16.1 0.00 0.00 0.00 78 1020.5
20260506193349 12 262 11.3 17.7 0.00 0.00 0.00 81 1020.4
20260506190332 12 271 4.8 8.0 0.00 0.00 0.00 84 1020.3
20260506183348 11 268 4.8 11.3 0.00 0.00 0.00 88 1020.3
20260506180331 11 229 9.7 16.1 0.00 0.00 0.00 89 1020.3
20260506173343 11 240 8.0 14.5 0.00 0.00 0.00 92 1020.0
20260506170326 11 213 6.4 11.3 0.00 0.00 0.00 94 1020.2
20260506163329 11 262 3.2 12.9 0.00 0.00 0.00 94 1020.0
20260506160341 11 258 4.8 9.7 0.00 0.00 0.00 94 1019.3
20260506153341 10 230 4.8 12.9 0.00 0.00 0.00 94 1019.8
20260506150351 10 246 4.8 12.9 0.00 0.00 0.00 94 1019.4
20260506143335 10 194 4.8 11.3 0.00 0.00 0.00 94 1019.7
20260506140408 10 128 3.2 12.9 0.00 0.00 0.00 94 1019.2
20260506133332 10 173 4.8 11.3 0.00 0.00 0.00 93 1019.1
20260506130330 11 212 3.2 12.9 0.00 0.00 0.00 92 1018.9
20260506123339 11 260 6.4 11.3 0.00 0.00 0.00 92 1018.6
20260506120324 11 242 3.2 12.9 0.00 0.00 0.00 91 1018.5
20260506113336 11 216 4.8 17.7 0.00 0.00 0.00 90 1018.1
20260506110339 11 221 4.8 9.7 0.00 0.00 0.00 90 1018.1
20260506103352 11 242 4.8 12.9 0.00 0.00 0.00 90 1017.9
20260506100337 11 255 6.4 16.1 0.00 0.00 0.00 90 1017.6